Date String (YYYY-MM-DD hh:mm:ss) UTC,Instrument flags,Ambient pressure (hPa),Sample flow (lpm),Bypass flow (lpm),Sample temperature (°C),Ambient temperature (°C),ASC tube jacket temperature (°C),LED temperature (°C),Box temperature (°C),Sample RH (%),Span deviation,Mass concentration (μg/m³),Mass concentration (μg/m³),Mass concentration (μg/m³)
DateTimeUTC,F1_M11,P_M11,Q1_M11,Q2_M11,T1_M11,T2_M11,T3_M11,T4_M11,T5_M11,U1_M11,ZSPAN_M11,X0_M11,X2_M11,X1_M11
2022-03-06 06:00:00,,0824.2,5.00,0.00,21.7,22.4,00.0,30.6,23.6,11.2,0000.0,0008.38,0005.58,0005.40
2022-03-06 06:01:00,,0824.1,4.99,0.00,21.7,22.1,00.0,30.6,23.4,11.3,0000.0,0008.14,0005.57,0005.38
2022-03-06 06:02:00,,0824.1,5.01,0.00,21.6,21.8,00.0,30.6,23.3,11.3,0000.0,0008.86,0005.52,0005.32
2022-03-06 06:03:00,,0824.0,4.99,0.00,21.6,21.6,00.0,30.6,23.2,11.3,0000.0,0009.05,0005.44,0005.23
2022-03-06 06:04:00,,0824.1,4.99,0.00,21.5,21.4,00.0,30.6,23.1,11.3,0000.0,0008.97,0005.35,0005.14
2022-03-06 06:05:00,,0824.1,5.01,0.00,21.5,21.2,00.0,30.6,23.1,11.4,0000.0,0009.03,0005.35,0005.13
2022-03-06 06:06:00,,0824.1,5.00,0.00,21.5,21.0,00.0,30.6,23.0,11.4,0000.0,0008.87,0005.22,0005.03
2022-03-06 06:07:00,,0824.1,5.00,0.00,21.4,20.9,00.0,30.6,23.0,11.5,0000.0,0008.63,0005.03,0004.85
2022-03-06 06:08:00,,0824.1,4.99,0.00,21.4,20.8,00.0,30.6,22.9,11.5,0000.0,0008.35,0004.85,0004.67
2022-03-06 06:09:00,,0824.1,5.00,0.00,21.3,20.8,00.0,30.5,22.9,11.5,0000.0,0007.98,0004.67,0004.50
2022-03-06 06:10:00,,0824.1,5.02,0.00,21.3,20.8,00.0,30.5,22.9,11.4,0000.0,0007.83,0004.48,0004.32
2022-03-06 06:11:00,,0824.1,4.99,0.00,21.4,21.4,00.0,30.6,23.1,11.3,0000.0,0007.98,0004.36,0004.17
2022-03-06 06:12:00,,0824.1,5.00,0.00,21.6,22.3,00.0,30.6,23.5,11.2,0000.0,0007.83,0004.19,0004.01
2022-03-06 06:13:00,,0824.1,5.00,0.00,21.7,22.6,00.0,30.6,23.7,11.2,0000.0,0006.90,0004.04,0003.88
2022-03-06 06:14:00,,0824.1,5.01,0.00,21.8,22.3,00.0,30.7,23.6,11.1,0000.0,0006.02,0003.87,0003.72
2022-03-06 06:15:00,,0824.1,4.99,0.00,21.7,22.0,00.0,30.7,23.5,11.2,0000.0,0006.30,0003.70,0003.56
2022-03-06 06:16:00,,0824.0,5.00,0.00,21.7,21.7,00.0,30.7,23.4,11.2,0000.0,0006.00,0003.58,0003.44
2022-03-06 06:17:00,,0824.0,5.00,0.00,21.7,21.5,00.0,30.7,23.3,11.3,0000.0,0005.98,0003.51,0003.34
2022-03-06 06:18:00,,0824.0,5.00,0.00,21.7,21.4,00.0,30.7,23.3,11.3,0000.0,0005.99,0003.48,0003.28
2022-03-06 06:19:00,,0824.0,5.00,0.00,21.6,21.2,00.0,30.7,23.2,11.3,0000.0,0005.98,0003.44,0003.23
2022-03-06 06:20:00,,0824.0,5.01,0.00,21.6,21.1,00.0,30.7,23.2,11.3,0000.0,0005.96,0003.42,0003.21
2022-03-06 06:21:00,,0824.0,4.99,0.00,21.5,21.0,00.0,30.6,23.1,11.4,0000.0,0006.28,0003.42,0003.20
2022-03-06 06:22:00,,0824.1,5.00,0.00,21.5,20.9,00.0,30.6,23.0,11.4,0000.0,0005.79,0003.40,0003.20
2022-03-06 06:23:00,,0824.1,5.01,0.00,21.4,20.8,00.0,30.6,23.0,11.5,0000.0,0005.49,0003.36,0003.19
2022-03-06 06:24:00,,0824.1,5.00,0.00,21.4,20.7,00.0,30.6,22.9,11.5,0000.0,0005.60,0003.36,0003.17
2022-03-06 06:25:00,,0824.1,5.00,0.00,21.4,21.2,00.0,30.6,23.1,11.5,0000.0,0005.50,0003.37,0003.17
2022-03-06 06:26:00,,0824.1,4.99,0.00,21.6,22.1,00.0,30.6,23.4,11.4,0000.0,0005.04,0003.39,0003.17
2022-03-06 06:27:00,,0824.1,5.00,0.00,21.8,22.8,00.0,30.7,23.8,11.2,0000.0,0005.05,0003.40,0003.17
2022-03-06 06:28:00,,0824.1,5.00,0.00,21.9,22.7,00.0,30.7,23.8,11.2,0000.0,0004.94,0003.37,0003.16
2022-03-06 06:29:00,,0824.1,5.01,0.00,21.9,22.4,00.0,30.7,23.7,11.1,0000.0,0004.86,0003.35,0003.16
2022-03-06 06:30:00,,0824.1,4.99,0.00,21.8,22.1,00.0,30.8,23.6,11.1,0000.0,0004.78,0003.32,0003.13
2022-03-06 06:31:00,,0824.1,4.99,0.00,21.8,21.8,00.0,30.8,23.5,11.2,0000.0,0004.73,0003.30,0003.11
2022-03-06 06:32:00,,0824.1,5.01,0.00,21.8,21.6,00.0,30.8,23.4,11.2,0000.0,0004.42,0003.28,0003.09
2022-03-06 06:33:00,,0824.0,5.01,0.00,21.7,21.4,00.0,30.8,23.3,11.2,0000.0,0004.36,0003.27,0003.07
2022-03-06 06:34:00,,0824.1,4.99,0.00,21.7,21.2,00.0,30.7,23.2,11.2,0000.0,0004.40,0003.27,0003.06
2022-03-06 06:35:00,,0824.0,5.01,0.00,21.6,21.0,00.0,30.7,23.1,11.2,0000.0,0004.36,0003.27,0003.05
2022-03-06 06:36:00,,0824.0,4.99,0.00,21.5,20.9,00.0,30.7,23.1,11.3,0000.0,0004.35,0003.28,0003.05
2022-03-06 06:37:00,,0824.0,5.00,0.00,21.5,20.8,00.0,30.7,23.0,11.4,0000.0,0004.16,0003.26,0003.05
2022-03-06 06:38:00,,0824.0,5.01,0.00,21.4,20.7,00.0,30.6,22.9,11.4,0000.0,0004.08,0003.25,0003.04
2022-03-06 06:39:00,,0824.1,4.99,0.00,21.4,21.2,00.0,30.7,23.1,11.5,0000.0,0004.06,0003.24,0003.03
2022-03-06 06:40:00,,0824.1,4.99,0.00,21.6,22.1,00.0,30.7,23.4,11.4,0000.0,0004.69,0003.24,0003.01
2022-03-06 06:41:00,,0824.1,5.00,0.00,21.8,22.7,00.0,30.7,23.7,11.4,0000.0,0004.81,0003.24,0003.01
2022-03-06 06:42:00,,0824.1,4.99,0.00,21.8,22.4,00.0,30.7,23.7,11.3,0000.0,0004.76,0003.23,0003.02
2022-03-06 06:43:00,,0824.1,5.01,0.00,21.8,22.1,00.0,30.8,23.5,11.3,0000.0,0004.96,0003.25,0003.03
2022-03-06 06:44:00,,0824.1,5.00,0.00,21.7,21.8,00.0,30.8,23.4,11.4,0000.0,0006.88,0003.23,0003.00
2022-03-06 06:45:00,,0824.1,5.00,0.00,21.7,21.5,00.0,30.7,23.2,11.4,0000.0,0007.15,0003.22,0002.97
2022-03-06 06:46:00,,0824.1,5.00,0.00,21.6,21.2,00.0,30.7,23.1,11.5,0000.0,0007.10,0003.20,0002.95
2022-03-06 06:47:00,,0824.1,5.00,0.00,21.5,20.9,00.0,30.7,23.0,11.5,0000.0,0006.93,0003.16,0002.92
2022-03-06 06:48:00,,0824.1,4.99,0.00,21.4,20.7,00.0,30.7,22.9,11.6,0000.0,0006.89,0003.14,0002.87
2022-03-06 06:49:00,,0824.1,4.99,0.00,21.3,20.6,00.0,30.6,22.8,11.7,0000.0,0006.95,0003.13,0002.80
2022-03-06 06:50:00,,0824.0,5.01,0.00,21.3,20.6,00.0,30.6,22.8,11.7,0000.0,0006.86,0003.09,0002.75
2022-03-06 06:51:00,,0824.1,4.98,0.00,21.4,21.4,00.0,30.6,23.1,11.6,0000.0,0006.16,0003.00,0002.71
2022-03-06 06:52:00,,0824.1,5.00,0.00,21.6,22.3,00.0,30.7,23.4,11.4,0000.0,0005.92,0002.93,0002.65
2022-03-06 06:53:00,,0824.1,5.01,0.00,21.7,23.0,00.0,30.7,23.8,11.2,0000.0,0005.85,0002.87,0002.60
2022-03-06 06:54:00,,0824.0,5.00,0.00,21.8,22.8,00.0,30.7,23.8,11.1,0000.0,0005.67,0002.84,0002.57
2022-03-06 06:55:00,,0824.1,4.99,0.00,21.8,22.4,00.0,30.7,23.6,11.1,0000.0,0003.60,0002.82,0002.58
2022-03-06 06:56:00,,0824.1,5.00,0.00,21.7,21.9,00.0,30.7,23.3,11.1,0000.0,0003.23,0002.82,0002.61
2022-03-06 06:57:00,,0824.1,5.00,0.00,21.6,21.6,00.0,30.7,23.2,11.2,0000.0,0003.34,0002.91,0002.67
2022-03-06 06:58:00,,0824.1,5.00,0.00,21.6,21.3,00.0,30.7,23.1,11.2,0000.0,0003.52,0003.08,0002.84
2022-03-06 06:59:00,,0824.1,5.00,0.00,21.5,21.1,00.0,30.7,23.0,11.3,0000.0,0003.71,0003.21,0003.05
